GW2584 Weather Reports


time (UTC)temp
C
wind
direction
speed
KPH
gust
KPH
rain 1hr
cm
rain 24hr
cm
rain mn
cm
humidity
%
barometer
mb
20260509193057 21 53 9.7 17.7 0.00 0.00 0.00 13 1017.0
20260509191607 21 124 3.2 12.9 0.00 0.00 0.00 14 1017.1
20260509190058 20 202 8.0 17.7 0.00 0.00 0.00 14 1017.3
20260509184610 20 116 4.8 22.5 0.00 0.00 0.00 14 1017.3
20260509183104 20 220 8.0 14.5 0.00 0.00 0.00 12 1017.0
20260509181602 20 101 9.7 24.1 0.00 0.00 0.00 13 1016.9
20260509180115 20 37 6.4 17.7 0.00 0.00 0.00 15 1017.2
20260509174604 20 44 4.8 20.9 0.00 0.00 0.00 16 1017.3
20260509173106 20 82 4.8 17.7 0.00 0.00 0.00 17 1017.3
20260509171559 19 96 6.4 17.7 0.00 0.00 0.00 18 1017.3
20260509170100 18 59 8.0 20.9 0.00 0.00 0.00 18 1017.2
20260509164555 19 122 8.0 17.7 0.00 0.00 0.00 19 1017.0
20260509163101 19 64 8.0 20.9 0.00 0.00 0.00 18 1016.9
20260509161604 18 51 8.0 22.5 0.00 0.00 0.00 18 1016.7
20260509154556 18 96 8.0 16.1 0.00 0.00 0.00 21 1016.5
20260509153104 18 120 4.8 9.7 0.00 0.00 0.00 21 1016.6
20260509151600 17 259 1.6 9.7 0.00 0.00 0.00 22 1016.9
20260509150056 16 45 3.2 8.0 0.00 0.00 0.00 22 1016.9
20260509144558 16 317 0.0 6.4 0.00 0.00 0.00 24 1017.1
20260509143100 16 210 3.2 8.0 0.00 0.00 0.00 23 1017.1
20260509141558 15 207 1.6 4.8 0.00 0.00 0.00 25 1017.1
20260509140108 13 199 0.0 9.7 0.00 0.00 0.00 32 1017.3
20260509134555 11 183 3.2 9.7 0.00 0.00 0.00 33 1017.2
20260509133054 11 205 4.8 9.7 0.00 0.00 0.00 36 1017.2
20260509131558 11 225 8.0 14.5 0.00 0.00 0.00 37 1017.2
20260509130100 11 189 8.0 16.1 0.00 0.00 0.00 37 1017.0
20260509124559 11 230 3.2 9.7 0.00 0.00 0.00 36 1016.8
20260509123103 11 217 6.4 9.7 0.00 0.00 0.00 35 1016.4
20260509121601 11 212 4.8 12.9 0.00 0.00 0.00 36 1016.2
20260509120057 11 251 6.4 12.9 0.00 0.00 0.00 35 1015.8
20260509114600 11 99 1.6 4.8 0.00 0.00 0.00 37 1015.6
20260509113100 11 0 1.6 4.8 0.00 0.00 0.00 38 1015.4
20260509111559 11 30 3.2 11.3 0.00 0.00 0.00 38 1015.3
20260509110056 11 0 0.0 4.8 0.00 0.00 0.00 38 1015.1
20260509104603 11 120 1.6 8.0 0.00 0.00 0.00 37 1015.3
20260509103106 12 254 0.0 20.9 0.00 0.00 0.00 36 1014.9
20260509101620 12 198 9.7 25.7 0.00 0.00 0.00 35 1014.7
20260509100059 12 203 6.4 16.1 0.00 0.00 0.00 35 1015.1
20260509094602 11 200 0.0 6.4 0.00 0.00 0.00 35 1015.2
20260509093059 12 200 1.6 16.1 0.00 0.00 0.00 35 1015.3
20260509091558 12 0 1.6 12.9 0.00 0.00 0.00 36 1015.1
20260509090105 12 185 4.8 11.3 0.00 0.00 0.00 35 1015.0
20260509084604 11 169 1.6 16.1 0.00 0.00 0.00 36 1014.9
20260509083109 11 266 3.2 8.0 0.00 0.00 0.00 37 1015.0
20260509081557 12 0 1.6 8.0 0.00 0.00 0.00 34 1015.1
20260509080059 12 227 6.4 11.3 0.00 0.00 0.00 33 1015.2
20260509074612 12 229 3.2 8.0 0.00 0.00 0.00 35 1015.3
20260509073107 12 0 0.0 9.7 0.00 0.00 0.00 35 1015.3
20260509071603 12 217 1.6 11.3 0.00 0.00 0.00 35 1015.5
20260509070106 12 221 1.6 12.9 0.00 0.00 0.00 37 1015.5
20260509064601 11 235 1.6 6.4 0.00 0.00 0.00 36 1015.5
20260509063102 11 250 0.0 4.8 0.00 0.00 0.00 43 1015.7
20260509061556 11 0 0.0 4.8 0.00 0.00 0.00 41 1015.6
20260509060112 10 221 0.0 8.0 0.00 0.00 0.00 49 1015.8
20260509054557 11 0 0.0 6.4 0.00 0.00 0.00 51 1016.0
20260509053116 11 249 6.4 11.3 0.00 0.00 0.00 51 1016.1
20260509051609 10 241 0.0 4.8 0.00 0.00 0.00 60 1016.4
20260509044559 10 0 1.6 6.4 0.00 0.00 0.00 59 1016.7
20260509043100 10 0 0.0 6.4 0.00 0.00 0.00 59 1017.0
20260509041556 10 0 0.0 4.8 0.00 0.00 0.00 58 1017.1
20260509040108 11 265 1.6 3.2 0.00 0.00 0.00 56 1017.4
20260509034555 11 239 3.2 8.0 0.00 0.00 0.00 55 1017.4
20260509033128 12 0 0.0 8.0 0.00 0.00 0.00 51 1017.5
20260509031555 12 205 1.6 6.4 0.00 0.00 0.00 51 1017.6
20260509030059 12 186 4.8 8.0 0.00 0.00 0.00 51 1017.5
20260509024606 12 202 1.6 4.8 0.00 0.00 0.00 51 1017.4
20260509023054 12 203 3.2 6.4 0.00 0.00 0.00 52 1017.3
20260509021557 12 0 0.0 1.6 0.00 0.00 0.00 51 1017.2
20260509020110 12 0 0.0 1.6 0.00 0.00 0.00 50 1017.1
20260509014557 13 224 0.0 1.6 0.00 0.00 0.00 49 1016.9
20260509013100 13 0 1.6 6.4 0.00 0.00 0.00 48 1016.9
20260509011604 13 123 1.6 9.7 0.00 0.00 0.00 47 1016.8
20260509010100 13 109 1.6 8.0 0.00 0.00 0.00 47 1016.7
20260509004555 14 86 3.2 14.5 0.00 0.00 0.00 46 1016.5
20260509003059 15 48 4.8 9.7 0.00 0.00 0.00 45 1016.6
20260509001556 15 45 0.0 12.9 0.00 0.00 0.00 45 1016.6
20260509000055 15 58 3.2 14.5 0.00 0.00 0.00 45 1016.6
20260508234603 15 0 0.0 11.3 0.00 0.00 0.00 44 1016.6
20260508233104 15 330 3.2 12.9 0.00 0.00 0.00 44 1016.4
20260508231600 16 55 3.2 9.7 0.00 0.00 0.00 44 1016.5
20260508230057 16 34 3.2 8.0 0.00 0.00 0.00 43 1016.6
20260508224556 16 92 8.0 19.3 0.00 0.00 0.00 43 1016.5
20260508223055 16 4 1.6 11.3 0.00 0.00 0.00 44 1016.5
20260508221558 15 284 6.4 14.5 0.00 0.00 0.00 45 1016.6
20260508220056 15 0 4.8 17.7 0.00 0.00 0.00 45 1016.7
20260508214556 15 35 4.8 19.3 0.00 0.00 0.00 46 1016.8
20260508213058 15 295 3.2 17.7 0.00 0.00 0.00 45 1016.9
20260508211557 15 112 6.4 24.1 0.00 0.00 0.00 45 1016.9
20260508210100 15 32 6.4 16.1 0.00 0.00 0.00 48 1017.1
20260508204558 15 96 8.0 14.5 0.00 0.00 0.00 49 1017.1
20260508203101 15 16 6.4 17.7 0.00 0.00 0.00 48 1017.2
20260508201558 15 4 9.7 19.3 0.00 0.00 0.00 50 1017.2
20260508200113 14 51 11.3 22.5 0.00 0.00 0.00 50 1017.4
20260508194607 14 43 6.4 22.5 0.00 0.00 0.00 52 1017.6